TimeMDT,TemperatureF,Dew PointF,Humidity,Sea Level PressureIn,VisibilityMPH,Wind Direction,Wind SpeedMPH,Gust SpeedMPH,PrecipitationIn,Events,Conditions,WindDirDegrees,DateUTC
1:40 AM,77.0,66.2,69,29.89,8.0,West,11.5,-,N/A,,Scattered Clouds,280,2012-10-12 07:40:00
3:40 AM,77.0,66.2,69,29.88,8.0,Calm,Calm,-,N/A,,Clear,0,2012-10-12 09:40:00
4:42 AM,77.0,66.2,69,29.88,8.0,Calm,Calm,-,N/A,,Clear,0,2012-10-12 10:42:00
5:42 AM,77.0,60.8,57,29.90,8.0,WNW,11.5,-,N/A,,Clear,300,2012-10-12 11:42:00
5:50 AM,74,59,51,29.91,12,Calm,Calm,,,,,,2012-10-12 11:50:00
6:51 AM,75.2,62.6,65,29.93,8.0,West,6.9,-,N/A,,Clear,270,2012-10-12 12:51:00
7:46 AM,73.4,62.6,69,29.95,8.0,Calm,Calm,-,N/A,,Scattered Clouds,0,2012-10-12 13:46:00
8:42 AM,75.2,64.4,69,29.97,8.0,Calm,Calm,-,N/A,,Scattered Clouds,0,2012-10-12 14:42:00
8:50 AM,78,63,50,29.98,12,WSW,2.2,,,,Scattered Clouds,240,2012-10-12 14:50:00
9:42 AM,80.6,71.6,74,30.00,8.0,NNW,9.2,-,N/A,,Scattered Clouds,340,2012-10-12 15:42:00
10:44 AM,82.4,71.6,70,30.00,8.0,NNW,11.5,-,N/A,,Mostly Cloudy,340,2012-10-12 16:44:00
11:30 AM,85,65,42,29.99,12,North,4.5,,,,Mostly Cloudy,0,2012-10-12 17:30:00
11:41 AM,82.4,69.8,66,30.00,8.0,North,13.8,-,N/A,,Mostly Cloudy,350,2012-10-12 17:41:00
12:45 PM,82.4,69.8,66,29.99,8.0,NNW,13.8,-,N/A,,Scattered Clouds,340,2012-10-12 18:45:00
1:40 PM,82.4,69.8,66,29.96,8.0,North,17.3,-,N/A,,Scattered Clouds,360,2012-10-12 19:40:00
2:51 PM,82.4,69.8,66,29.94,8.0,North,13.8,-,N/A,,Scattered Clouds,360,2012-10-12 20:51:00
3:44 PM,84.2,66.2,55,29.92,8.0,North,23.0,-,N/A,,Partly Cloudy,10,2012-10-12 21:44:00
4:52 PM,84.2,66.2,55,29.91,8.0,NNE,18.4,-,N/A,,Clear,20,2012-10-12 22:52:00
5:46 PM,82.4,68.0,62,29.91,8.0,NNE,13.8,-,N/A,,Clear,20,2012-10-12 23:46:00
8:45 PM,78,65,56,29.96,12,Calm,Calm,,,,,,2012-10-13 02:45:00
8:52 PM,77.0,66.2,69,29.95,8.0,Calm,Calm,-,N/A,,Clear,0,2012-10-13 02:52:00
10:41 PM,77.0,64.4,65,29.96,8.0,WNW,6.9,-,N/A,,Clear,290,2012-10-13 04:41:00
11:43 PM,77.0,64.4,65,29.97,8.0,WNW,9.2,-,N/A,,Clear,300,2012-10-13 05:43:00
11:48 PM,76,63,55,29.99,12,NNW,4.5,,,,,340,2012-10-13 05:48:00